IRNSS-1F

Last updated on Thu Aug 13 2026 00:03:00 GMT+0000 (Coordinated Universal Time)

1 41384U 16015A 26224.22211817 .00000138 00000+0 00000+0 0 9993 2 41384 5.4853 95.4872 0018522 176.4517 161.1653 1.00268096 38221
UTC large
Height (km)
Speed (km/s)
/
Latitude / Longitude
Inclination (degrees)
Orbital Period (minutes)
Azimuth
Elevation
Range (km)
Doppler Factor

Next 0 passes for location: London (51.5072 / 0.1276)

No passes found over London.
IRNSS-1F